User: anonymous   Login
Location: Pian di Sc�
(43.6333°N, 11.5500°E)
Time: 07:39:29
(UTC+00:00)
Language:

Landsat 5 - Orbit

View from above orbital plane
View from above orbital plane
View from above satellite
View from above satellite

Ground track
Ground track

The orbit data is extracted from the following two-line orbital elements,

1 14780U 84021A   20299.93547694 +.00000486 +00000-0 +50326-4 0  9992
2 14780 098.1869 101.9730 0091233 095.6214 265.5416 14.92128597483236
Epoch (UTC): 25 October 2020 22:27:05
Eccentricity: 0.0091233
inclination: 98.1869°
perigee height: 528 km
apogee height: 655 km
right ascension of ascending node: 101.9730°
argument of perigee: 95.6214°
revolutions per day: 14.92128597
mean anomaly at epoch: 265.5416°
orbit number at epoch: 48323

The dashed part of the orbit path shows where the satellite is in the earth's shadow,  

DLR